DELTA 1 DEB, 10662

Orbit data source: Space-Track

DELTA 1 DEB, 10662 is space debris in SSO originally from a launch on Thu, 29 Jul 1976 UTC launched from the Air Force Western Test Range (AFWTR). Debris objects in space refer to the collection of defunct objects orbiting the Earth. Examples of debris include non-operational satellites, rocket bodies, and fragments generated from explosions, collisions, or faulty payload assembly.

Loading next visibility...
Identifier
10662, 1976-077Y
Orbit
SSO
Country
Flag of USUS
Related business
Manufacturer
Unknown
Mission
Spacecraft
Bus & Motor
Unknown
Mass
Unknown
Launch date (UTC)
1976-07-29 (49 years ago)
Launch vehicle
Unknown
Launch site
Air Force Western Test Range (AFWTR)
Object type
Payload
Rocket body
Debris
Shape & HBR
Unknown shape, 0.2 m
Radar Cross Section
Small (<0.1 m²)

Expand to show TLE details & history
Last TLE update: 20 hours ago

TLE from 20 hours ago
0 DELTA 1 DEB
1 10662U 76077Y   25349.14271554  .00000800  00000-0  27056-2 0  9994
2 10662 100.8148  39.8726 0258545 234.6202 152.5523 12.92016311313536
Epoch: 2025-12-15T03:25Z
TLE epoch observation values (Epoch: 2025-12-15T03:25:30.622Z)
Latitude
27.98856°
Longitude
-101.34883°
Altitude
1,473.861 km
Speed
7.046 km/s
True Right ascension
02h 16m 17s
True Declination
27° 51' 33"
Sunlit
Object was in full shadow at epoch
Visualization orbit readout
Latitude
Unknown
Longitude
Unknown
Altitude
Unknown
Speed
Unknown
Apparent Right ascension
Unknown
Apparent Declination
Unknown
Sunlit
N/A
Visualization observer readout
Local Sidereal Time
22:30:46
Azimuth
Unknown
Elevation
Unknown
Doppler factor
Unknown
Orbital elements
Apogee altitude
1,489.248 km
Perigee altitude
1,092.686 km
Semi-major axis
7,669.104 km
Eccentricity
0.02585
Inclination
100.8148°
RAAN
39.8726°
Arg. of periapsis
234.6202°
True anomaly
153.87969°
Mean anomaly
152.5523°
Eccentric anomaly
153.21975°
Mean motion
3.23166 °/min
Orbital period
111.4 mins
BSTAR
0.0027056
Loading maneuver chart data...
Computing Atmospheric mass density...
Loading historical data...
Loading historical data...
Loading historical data...
Loading historical data...
Loading historical data...
Loading historical data...
Loading historical data...

Documentation

Showing up to 5 results
|